COMSATBW-2

Last updated on Mon Sep 15 2025 00:02:47 GMT+0000 (Coordinated Universal Time)

1 36582U 10021B 25257.23725402 .00000076 00000+0 00000+0 0 9995 2 36582 0.0529 93.1851 0002701 105.5069 253.3582 1.00271066 56186
UTC large
Height (km)
Speed (km/s)
/
Latitude / Longitude
Inclination (degrees)
Orbital Period (minutes)
Azimuth
Elevation
Range (km)
Doppler Factor

Next 0 passes for location: London (51.5072 / 0.1276)

Sorry there are no passes over London.